Weather observations for the past three days for
Harry Reid International Airport
| Date | Time (pdt) | Wind (kph) | Vis. (km) | Weather | Sky Cond. | Temperature (ºC) | Relative Humidity | Wind Chill (°C) | Heat Index (°C) | Pressure | Precipitation (cm) | ||||||
|---|---|---|---|---|---|---|---|---|---|---|---|---|---|---|---|---|---|
| Air | Dwpt | 6 hour | altimeter (cm) | sea level (mb) | 1 hr | 3 hr | 6 hr | ||||||||||
| Max. | Min. | ||||||||||||||||
| 02 | 20:56 | S 13 | 16.09 | Fair | CLR | 30.6 | -8.9 | 7% | 29 | 75.84 | 1008.4 | ||||||
| 02 | 19:56 | S 17 G 30 | 16.09 | A Few Clouds | FEW250 | 31.1 | -8.9 | 7% | 29 | 75.79 | 1007.9 | ||||||
| 02 | 18:56 | SW 24 G 39 | 16.09 | A Few Clouds | FEW250 | 32.2 | -10 | 6% | 30 | 75.82 | 1008.1 | ||||||
| 02 | 17:56 | SW 26 G 43 | 16.09 | Fair | CLR | 33.3 | -11.1 | 5% | 31 | 75.82 | 1008.2 | ||||||
| 02 | 16:56 | SW 31 G 43 | 16.09 | Fair | CLR | 33.9 | -12.2 | 35 | 31.1 | 4% | 31 | 75.84 | 1008.3 | ||||
| 02 | 15:56 | SW 26 G 52 | 16.09 | A Few Clouds | FEW250 | 35 | -14.4 | 3% | 32 | 75.84 | 1008.4 | ||||||
| 02 | 14:56 | SW 28 G 44 | 16.09 | A Few Clouds | FEW250 | 34.4 | -13.9 | 4% | 32 | 75.9 | 1009.2 | ||||||
| 02 | 13:56 | SW 35 G 54 | 16.09 | A Few Clouds and Breezy | FEW250 | 34.4 | -15.6 | 3% | 32 | 75.97 | 1010.0 | ||||||
| 02 | 12:56 | SW 28 G 43 | 16.09 | A Few Clouds | FEW250 | 33.9 | -14.4 | 4% | 31 | 76 | 1010.4 | ||||||
| 02 | 11:56 | SW 31 G 46 | 16.09 | A Few Clouds | FEW250 | 32.2 | -12.2 | 5% | 30 | 76.07 | 1011.4 | ||||||
| 02 | 10:56 | S 20 G 46 | 16.09 | A Few Clouds | FEW250 | 31.1 | -11.1 | 31.1 | 23.3 | 6% | 29 | 76.1 | 1011.7 | ||||
| 02 | 09:56 | S 17 G 28 | 16.09 | A Few Clouds | FEW250 | 30 | -9.4 | 7% | 28 | 76.1 | 1011.8 | ||||||
| 02 | 08:56 | SW 20 G 35 | 16.09 | Fair | CLR | 28.3 | -8.3 | 8% | 27 | 76.07 | 1011.5 | ||||||
| 02 | 07:56 | SW 24 G 39 | 16.09 | Fair | CLR | 26.7 | -8.3 | 9% | 26 | 76.02 | 1010.8 | ||||||
| 02 | 06:56 | SW 26 G 41 | 16.09 | Fair | CLR | 25 | -8.3 | 10% | 24 | 76 | 1010.5 | ||||||
| 02 | 05:56 | SW 15 | 16.09 | A Few Clouds | FEW120 | 24.4 | -7.8 | 11% | 24 | 75.97 | 1010.3 | ||||||
| 02 | 04:56 | SW 30 | 16.09 | Fair | CLR | 25 | -8.3 | 29.4 | 25 | 10% | 24 | 75.95 | 1009.7 | ||||
| 02 | 03:56 | SW 24 | 16.09 | Fair | CLR | 25 | -7.2 | 11% | 25 | 75.95 | 1009.7 | ||||||
| 02 | 02:56 | SW 22 | 16.09 | Fair | CLR | 26.1 | -5 | 12% | 25 | 75.97 | 1010.0 | ||||||
| 02 | 01:56 | SW 28 G 39 | 16.09 | Fair | CLR | 26.7 | -6.7 | 11% | 26 | 75.97 | 1009.8 | ||||||
| 02 | 00:56 | SW 22 | 16.09 | Fair | CLR | 27.8 | -6.1 | 10% | 26 | 75.95 | 1009.7 | ||||||
| 01 | 23:56 | SW 24 G 41 | 16.09 | Fair | CLR | 28.3 | -6.7 | 10% | 27 | 75.92 | 1009.4 | ||||||
| 01 | 22:56 | SW 20 G 35 | 16.09 | Fair | CLR | 29.4 | -6.7 | 35 | 29.4 | 9% | 28 | 75.92 | 1009.3 | ||||
| 01 | 21:56 | SW 20 G 30 | 16.09 | Fair | CLR | 30.6 | -5.6 | 9% | 29 | 75.92 | 1009.3 | ||||||
| 01 | 20:56 | SW 19 | 16.09 | Fair | CLR | 31.1 | -2.8 | 11% | 29 | 75.84 | 1008.3 | ||||||
| 01 | 19:56 | SW 15 | 16.09 | A Few Clouds | FEW120 | 32.2 | -1.1 | 12% | 30 | 75.79 | 1007.6 | ||||||
| 01 | 18:56 | SW 26 G 43 | 16.09 | A Few Clouds | FEW120 | 33.3 | -1.1 | 11% | 31 | 75.77 | 1007.4 | ||||||
| 01 | 17:56 | SW 28 G 39 | 16.09 | A Few Clouds | FEW120 | 34.4 | -1.7 | 10% | 32 | 75.82 | 1007.9 | ||||||
| 01 | 16:56 | W 30 G 46 | 16.09 | A Few Clouds | FEW120 | 35 | -3.9 | 36.1 | 31.7 | 8% | 32 | 75.84 | 1008.2 | ||||
| 01 | 15:56 | S 24 G 41 | 16.09 | A Few Clouds | FEW120 | 35.6 | -2.8 | 8% | 33 | 75.87 | 1008.3 | ||||||
| 01 | 14:56 | SW 30 G 43 | 16.09 | A Few Clouds | FEW120 | 35 | -1.7 | 9% | 32 | 75.9 | 1008.8 | ||||||
| 01 | 13:56 | SW 22 G 37 | 16.09 | A Few Clouds | FEW120 | 35.6 | 0 | 10% | 33 | 75.95 | 1009.4 | ||||||
| 01 | 12:56 | SW 17 G 35 | 16.09 | A Few Clouds | FEW120 | 33.3 | 1.7 | 13% | 31 | 76.02 | 1010.5 | ||||||
| 01 | 11:56 | S 22 G 39 | 16.09 | A Few Clouds | FEW120 | 32.8 | 6.1 | 19% | 31 | 76.07 | 1011.1 | ||||||
| 01 | 10:56 | S 24 G 41 | 16.09 | A Few Clouds | FEW120 | 32.2 | 7.2 | 32.2 | 25.6 | 21% | 30 | 76.1 | 1011.5 | ||||
| 01 | 09:56 | S 19 G 33 | 16.09 | A Few Clouds | FEW120 | 30.6 | 3.3 | 18% | 29 | 76.1 | 1011.7 | ||||||
| 01 | 08:56 | S 15 | 16.09 | A Few Clouds | FEW120 | 29.4 | -2.2 | 13% | 28 | 76.1 | 1011.7 | ||||||
| 01 | 07:56 | S 11 | 16.09 | A Few Clouds | FEW120 FEW150 | 27.2 | -0.6 | 16% | 26 | 76.07 | 1011.4 | ||||||
| 01 | 06:56 | S 13 | 16.09 | A Few Clouds | FEW120 FEW150 | 26.1 | 0.6 | 19% | 26 | 76.05 | 1011.1 | ||||||
| 01 | 05:56 | S 13 | 16.09 | A Few Clouds | FEW150 | 26.1 | 0.6 | 19% | 26 | 76.02 | 1010.7 | ||||||
| 01 | 04:56 | S 9 | 16.09 | Fair | CLR | 26.7 | 2.2 | 31.7 | 26.7 | 20% | 26 | 76.02 | 1010.5 | ||||
| 01 | 03:56 | S 17 | 16.09 | A Few Clouds | FEW150 | 27.2 | 2.8 | 21% | 26 | 76.02 | 1010.4 | ||||||
| 01 | 02:56 | S 13 | 16.09 | A Few Clouds | FEW220 | 27.8 | 3.3 | 21% | 27 | 76 | 1010.2 | ||||||
| 01 | 01:56 | S 11 | 16.09 | A Few Clouds | FEW220 | 28.3 | 2.8 | 19% | 27 | 75.97 | 1009.7 | ||||||
| 01 | 00:56 | Vrbl 11 | 16.09 | Partly Cloudy | FEW120 SCT220 | 29.4 | 0 | 15% | 28 | 75.95 | 1009.6 | ||||||
| 31 | 23:56 | S 17 | 16.09 | Partly Cloudy | FEW120 SCT220 | 30.6 | -1.1 | 13% | 29 | 75.92 | 1009.2 | ||||||
| 31 | 22:56 | SW 22 G 37 | 16.09 | A Few Clouds | FEW120 FEW180 | 31.7 | 2.2 | 37.2 | 31.1 | 15% | 30 | 75.9 | 1008.6 | ||||
| 31 | 21:56 | S 26 G 43 | 16.09 | A Few Clouds | FEW120 | 31.7 | 12.2 | 30% | 31 | 75.84 | 1008.0 | ||||||
| 31 | 20:56 | S 22 G 56 | 16.09 | A Few Clouds | FEW120 | 32.2 | 13.3 | 32% | 31 | 75.79 | 1007.3 | ||||||
| 31 | 18:56 | SW 24 G 43 | 16.09 | A Few Clouds | FEW120 FEW220 | 35 | 4.4 | 15% | 33 | 75.72 | 1006.3 | ||||||
| 31 | 17:56 | SW 24 G 41 | 16.09 | A Few Clouds | FEW120 FEW220 | 36.1 | 3.9 | 13% | 34 | 75.69 | 1006.1 | ||||||
| 31 | 15:56 | SW 20 G 50 | 16.09 | Partly Cloudy | SCT120 SCT220 | 37.2 | 5 | 14% | 35 | 75.72 | 1006.1 | ||||||
| 31 | 13:56 | SW 26 G 44 | 16.09 | Partly Cloudy | SCT120 | 37.8 | 6.1 | 14% | 35 | 75.84 | 1007.8 | ||||||
| 31 | 12:56 | Vrbl 7 | 16.09 | A Few Clouds | FEW120 | 35.6 | 8.9 | 19% | 34 | 75.9 | 1008.9 | ||||||
| 31 | 11:56 | S 17 G 33 | 16.09 | A Few Clouds | FEW120 | 34.4 | 8.9 | 21% | 32 | 75.97 | 1009.9 | ||||||
| 31 | 10:56 | Calm | 16.09 | A Few Clouds | FEW120 FEW200 | 32.8 | 9.4 | 33.9 | 27.8 | 24% | 31 | 76.02 | 1010.3 | ||||
| 31 | 09:56 | S 20 G 30 | 16.09 | A Few Clouds | FEW120 FEW200 | 32.8 | 8.3 | 22% | 31 | 76.02 | 1010.4 | ||||||
| 31 | 08:56 | S 13 G 30 | 16.09 | A Few Clouds | FEW120 FEW200 | 31.1 | 7.8 | 23% | 29 | 76 | 1010.2 | ||||||
| 31 | 07:56 | SE 17 | 16.09 | A Few Clouds | FEW120 FEW200 | 28.9 | 7.8 | 27% | 28 | 75.97 | 1010.0 | ||||||
| 31 | 06:56 | S 13 | 16.09 | A Few Clouds | FEW120 FEW220 | 28.3 | 7.2 | 26% | 27 | 75.92 | 1009.0 | ||||||
| 31 | 05:56 | S 11 | 16.09 | A Few Clouds | FEW220 | 28.3 | 7.8 | 27% | 27 | 75.87 | 1008.4 | ||||||
| 31 | 04:56 | S 13 | 16.09 | A Few Clouds | FEW250 | 28.9 | 7.2 | 32.2 | 28.9 | 25% | 28 | 75.84 | 1008.1 | ||||
| 31 | 03:56 | S 9 | 16.09 | A Few Clouds | FEW250 | 28.9 | 7.2 | 25% | 28 | 75.87 | 1008.3 | ||||||
| 31 | 02:56 | S 9 | 16.09 | A Few Clouds | FEW240 | 29.4 | 6.1 | 23% | 28 | 75.82 | 1007.7 | ||||||
| 31 | 01:56 | S 13 | 16.09 | A Few Clouds | FEW240 | 30 | 4.4 | 20% | 28 | 75.82 | 1007.7 | ||||||
| 31 | 00:56 | S 6 | 16.09 | A Few Clouds | FEW240 | 30 | 5 | 20% | 28 | 75.82 | 1007.6 | ||||||
| 30 | 23:56 | SW 7 | 16.09 | A Few Clouds | FEW120 FEW240 | 31.1 | 7.8 | 23% | 29 | 75.79 | 1007.3 | ||||||
| 30 | 22:56 | S 7 | 16.09 | Mostly Cloudy | FEW120 BKN240 | 32.2 | 5 | 37.2 | 31.7 | 18% | 30 | 75.79 | 1007.4 | ||||
| 30 | 21:56 | SE 9 | 16.09 | Mostly Cloudy | FEW120 BKN240 | 32.8 | 3.9 | 16% | 31 | 75.79 | 1007.4 | ||||||
| Date | Time (pdt) | Wind (kph) | Vis. (km) | Weather | Sky Cond. | Air | Dwpt | Max. | Min. | Relative Humidity | Wind Chill (°C) | Heat Index (°C) | altimeter (cm) | sea level (mb) | 1 hr | 3 hr | 6 hr |
| 6 hour | |||||||||||||||||
| Temperature (ºC) | Pressure | Precipitation (cm) | |||||||||||||||